FW8699 Weather Reports


time (UTC)temp
F
wind
direction
speed
knots
gust
knots
rain 1hr
in
rain 24hr
in
rain mn
in
humidity
%
barometer
mb
20260510190108 83 225 2.6 6.1 0.00 0.00 0.00 43 1014.4
20260510184606 82 252 0.0 3.5 0.00 0.00 0.00 47 1014.5
20260510183059 82 255 0.9 6.1 0.00 0.00 0.00 46 1014.7
20260510181617 82 219 0.9 6.1 0.00 0.00 0.00 48 1014.6
20260510180108 82 313 0.9 3.5 0.00 0.00 0.00 47 1015.0
20260510174624 82 315 0.9 4.3 0.00 0.00 0.00 48 1014.7
20260510173056 81 0 0.9 3.5 0.00 0.00 0.00 50 1014.9
20260510171618 82 360 0.9 6.1 0.00 0.00 0.00 47 1015.0
20260510170054 81 38 0.9 5.2 0.00 0.00 0.00 48 1015.1
20260510164601 80 0 0.9 3.5 0.00 0.00 0.00 50 1015.2
20260510163102 80 265 1.7 3.5 0.00 0.00 0.00 51 1015.3
20260510161558 80 328 1.7 6.1 0.00 0.00 0.00 53 1015.3
20260510160057 78 0 0.0 4.3 0.00 0.00 0.00 60 1015.5
20260510154559 78 346 1.7 4.3 0.00 0.00 0.00 56 1015.6
20260510153058 77 323 2.6 5.2 0.00 0.00 0.00 59 1015.6
20260510151555 77 335 2.6 4.3 0.00 0.00 0.00 62 1015.6
20260510150100 76 339 1.7 4.3 0.00 0.00 0.00 64 1015.4
20260510144602 75 111 0.9 4.3 0.00 0.00 0.00 67 1015.7
20260510143055 74 0 0.9 7.0 0.00 0.00 0.00 71 1015.4
20260510141553 73 0 0.0 2.6 0.00 0.00 0.00 73 1015.4
20260510140054 72 0 0.0 2.6 0.00 0.00 0.00 78 1015.5
20260510134556 70 0 1.7 2.6 0.00 0.01 0.00 81 1015.5
20260510133052 69 300 0.9 5.2 0.00 0.01 0.00 85 1015.4
20260510131551 68 261 0.9 3.5 0.00 0.01 0.00 88 1015.3
20260510130057 67 265 0.9 2.6 0.00 0.01 0.00 91 1015.3
20260510124601 65 266 0.9 3.5 0.00 0.01 0.00 93 1014.9
20260510123056 64 270 0.9 2.6 0.00 0.01 0.00 95 1014.9
20260510121555 63 267 0.9 2.6 0.00 0.01 0.00 96 1014.9
20260510114613 61 0 0.9 1.7 0.00 0.01 0.00 96 1014.5
20260510113101 61 0 0.0 0.0 0.00 0.01 0.00 96 1014.3
20260510111557 61 0 0.0 0.9 0.00 0.01 0.00 96 1014.1
20260510104600 60 0 0.0 0.0 0.00 0.01 0.00 96 1013.7
20260510103057 60 0 0.0 0.0 0.00 0.01 0.00 96 1013.5
20260510101603 61 0 0.9 1.7 0.00 0.01 0.00 96 1013.2
20260510100107 61 0 0.0 0.9 0.00 0.01 0.00 96 1013.0
20260510094557 60 0 0.0 0.0 0.00 0.01 0.00 96 1012.9
20260510093059 60 0 0.0 1.7 0.00 0.01 0.00 96 1012.8
20260510091608 60 0 0.0 0.0 0.00 0.01 0.00 96 1012.8
20260510084615 60 0 0.0 0.0 0.00 0.01 0.00 95 1012.4
20260510083109 61 0 0.0 0.0 0.00 0.01 0.00 96 1012.1
20260510081609 61 0 0.0 0.0 0.00 0.01 0.00 96 1012.2
20260510080104 61 0 0.0 0.0 0.00 0.01 0.00 96 1012.0
20260510074559 61 0 0.0 0.0 0.00 0.01 0.00 96 1012.0
20260510073100 61 0 0.0 0.0 0.00 0.01 0.00 95 1012.0
20260510071557 61 0 0.0 0.0 0.00 0.01 0.00 95 1011.9
20260510070109 61 0 0.0 0.0 0.00 0.01 0.00 95 1011.9
20260510064555 61 0 0.0 0.0 0.00 0.01 0.00 95 1012.1
20260510063055 61 0 0.0 0.0 0.00 0.01 0.00 95 1011.9
20260510061555 62 0 0.0 0.0 0.00 0.01 0.00 95 1011.9
20260510060056 62 0 0.0 0.0 0.00 0.01 0.00 95 1011.9
20260510054556 62 0 0.0 0.0 0.00 0.01 0.00 95 1012.1
20260510053059 62 0 0.0 0.0 0.00 0.01 0.00 95 1012.2
20260510051605 62 0 0.0 0.0 0.00 0.01 0.00 95 1012.5
20260510050105 62 0 0.0 0.0 0.00 0.01 0.00 95 1012.5
20260510044555 62 0 0.0 0.0 0.00 0.01 0.00 95 1012.5
20260510043054 63 0 0.0 0.0 0.00 0.01 0.00 94 1012.5
20260510041554 63 0 0.0 0.0 0.00 0.01 0.00 94 1012.5
20260510040103 63 0 0.0 0.0 0.00 0.01 0.00 94 1012.4
20260510034557 63 0 0.0 0.0 0.00 0.01 0.01 94 1012.3
20260510033103 64 0 0.0 0.0 0.00 0.01 0.01 94 1012.2
20260510031602 64 0 0.0 0.9 0.00 0.01 0.01 93 1012.2
20260510024555 65 271 0.0 1.7 0.00 0.01 0.01 92 1012.2
20260510023053 65 0 0.0 0.0 0.00 0.01 0.01 92 1012.0
20260510021645 65 0 0.0 0.0 0.00 0.01 0.01 92 1011.9
20260510020058 65 0 0.0 0.0 0.00 0.01 0.01 92 1011.8
20260510014559 65 0 0.0 0.0 0.00 0.01 0.01 92 1011.8
20260510013102 65 0 0.0 0.0 0.00 0.01 0.01 91 1011.4
20260510011556 66 0 0.0 1.7 0.00 0.01 0.01 90 1011.2
20260510010059 67 0 0.0 0.0 0.00 0.01 0.01 89 1011.2
20260510004554 67 0 0.0 0.0 0.00 0.01 0.01 87 1011.0
20260510003055 68 0 0.0 0.0 0.00 0.01 0.01 86 1010.9
20260510001557 69 0 0.0 0.0 0.00 0.01 0.01 83 1010.9
20260510000056 70 0 0.0 0.0 0.00 0.01 0.01 82 1010.9
20260509234556 71 0 0.0 0.0 0.00 0.01 0.01 80 1010.7
20260509233055 72 0 0.0 0.0 0.00 0.01 0.01 79 1010.6
20260509231601 72 0 0.0 0.9 0.00 0.01 0.01 78 1010.2
20260509230059 72 269 0.9 2.6 0.00 0.01 0.01 77 1010.2
20260509224559 72 269 0.9 2.6 0.00 0.01 0.01 77 1010.1
20260509223054 72 269 0.9 2.6 0.00 0.01 0.01 77 1010.1
20260509221556 72 0 0.0 2.6 0.00 0.01 0.01 77 1010.0
20260509220056 72 251 1.7 4.3 0.00 0.01 0.01 76 1010.2
20260509214559 73 257 1.7 3.5 0.00 0.01 0.01 75 1010.2
20260509213105 72 234 1.7 3.5 0.00 0.01 0.01 76 1010.1
20260509211603 72 267 1.7 3.5 0.00 0.01 0.01 76 1010.2
20260509210056 72 219 1.7 4.3 0.00 0.01 0.01 75 1010.1
20260509204600 72 243 0.9 4.3 0.00 0.01 0.01 75 1009.9
20260509203101 72 244 1.7 3.5 0.00 0.01 0.01 76 1010.1
20260509201600 72 226 1.7 5.2 0.00 0.01 0.01 75 1010.2
20260509200100 71 249 0.9 4.3 0.00 0.01 0.01 76 1010.2
20260509194600 71 227 2.6 6.1 0.00 0.01 0.01 74 1010.4
20260509193059 71 242 1.7 4.3 0.00 0.01 0.01 75 1010.5
20260509191609 71 233 3.5 7.8 0.00 0.01 0.01 74 1010.6